Time,TemperatureF,DewpointF,PressureIn,WindDirection,WindDirectionDegrees,WindSpeedMPH,WindSpeedGustMPH,Humidity,HourlyPrecipIn,Conditions,Clouds,dailyrainin,SolarRadiationWatts/m^2,SoftwareType,DateUTC
2013-02-27 00:01:00,32.0,28.0,-100.00,NE,50,4.0,7.0,85,-99.99,,,0.00,0.120000,,2013-02-27 08:01:00,
2013-02-27 00:11:00,32.0,28.0,-100.00,NE,50,4.0,7.0,85,-99.99,,,0.00,0.120000,,2013-02-27 08:11:00,
2013-02-27 00:41:00,32.0,28.0,-100.00,NNE,21,3.0,4.0,84,-99.99,,,0.00,0.120000,,2013-02-27 08:41:00,
2013-02-27 00:52:00,32.0,28.0,-100.00,NNE,21,3.0,4.0,84,-99.99,,,0.00,0.120000,,2013-02-27 08:52:00,
2013-02-27 01:01:00,32.0,28.0,-100.00,NNE,21,3.0,4.0,84,-99.99,,,0.00,0.120000,,2013-02-27 09:01:00,
2013-02-27 01:11:00,32.0,28.0,-100.00,NNE,21,3.0,4.0,84,-99.99,,,0.00,0.120000,,2013-02-27 09:11:00,
2013-02-27 01:41:00,32.0,28.0,-100.00,NNE,23,4.0,6.0,85,-99.99,,,0.00,0.120000,,2013-02-27 09:41:00,
2013-02-27 01:52:00,32.0,28.0,-100.00,NNE,23,4.0,6.0,85,-99.99,,,0.00,0.120000,,2013-02-27 09:52:00,
2013-02-27 02:01:00,32.0,28.0,-100.00,NNE,23,4.0,6.0,85,-99.99,,,0.00,0.120000,,2013-02-27 10:01:00,
2013-02-27 02:12:00,32.0,28.0,-100.00,NNE,23,4.0,6.0,85,-99.99,,,0.00,0.120000,,2013-02-27 10:12:00,
2013-02-27 02:42:00,31.0,27.0,-100.00,NNE,23,3.0,5.0,86,-99.99,,,0.00,0.120000,,2013-02-27 10:42:00,
2013-02-27 02:52:00,31.0,27.0,-100.00,NNE,23,3.0,5.0,86,-99.99,,,0.00,0.120000,,2013-02-27 10:52:00,
2013-02-27 03:01:00,31.0,27.0,-100.00,NNE,23,3.0,5.0,86,-99.99,,,0.00,0.120000,,2013-02-27 11:01:00,
2013-02-27 03:11:00,31.0,27.0,-100.00,NNE,23,3.0,5.0,86,-99.99,,,0.00,0.120000,,2013-02-27 11:11:00,
2013-02-27 03:41:00,31.0,28.0,-100.00,NE,46,4.0,7.0,86,-99.99,,,0.00,0.120000,,2013-02-27 11:41:00,
2013-02-27 03:52:00,31.0,28.0,-100.00,NE,46,4.0,7.0,86,-99.99,,,0.00,0.120000,,2013-02-27 11:52:00,
2013-02-27 04:02:00,31.0,28.0,-100.00,NE,46,4.0,7.0,86,-99.99,,,0.00,0.120000,,2013-02-27 12:02:00,
2013-02-27 04:12:00,31.0,28.0,-100.00,NE,46,4.0,7.0,86,-99.99,,,0.00,0.120000,,2013-02-27 12:12:00,
2013-02-27 04:42:00,32.0,28.0,-100.00,ENE,59,3.0,6.0,83,-99.99,,,0.00,0.120000,,2013-02-27 12:42:00,
2013-02-27 04:52:00,32.0,28.0,-100.00,ENE,59,3.0,6.0,83,-99.99,,,0.00,0.120000,,2013-02-27 12:52:00,
2013-02-27 05:02:00,32.0,28.0,-100.00,ENE,59,3.0,6.0,83,-99.99,,,0.00,0.120000,,2013-02-27 13:02:00,
2013-02-27 05:11:00,32.0,28.0,-100.00,ENE,59,3.0,6.0,83,-99.99,,,0.00,0.120000,,2013-02-27 13:11:00,
2013-02-27 05:42:00,32.0,28.0,-100.00,ENE,60,3.0,4.0,83,-99.99,,,0.00,0.120000,,2013-02-27 13:42:00,
2013-02-27 05:52:00,32.0,28.0,-100.00,ENE,60,3.0,4.0,83,-99.99,,,0.00,0.120000,,2013-02-27 13:52:00,
2013-02-27 06:02:00,32.0,28.0,-100.00,ENE,60,3.0,4.0,83,-99.99,,,0.00,0.120000,,2013-02-27 14:02:00,
2013-02-27 06:11:00,32.0,28.0,-100.00,ENE,60,3.0,4.0,83,-99.99,,,0.00,0.120000,,2013-02-27 14:11:00,
2013-02-27 06:42:00,32.0,28.0,-100.00,NNE,16,3.0,6.0,83,-99.99,,,0.00,0.230000,,2013-02-27 14:42:00,
2013-02-27 06:52:00,32.0,28.0,-100.00,NNE,16,3.0,6.0,83,-99.99,,,0.00,0.230000,,2013-02-27 14:52:00,
2013-02-27 07:02:00,32.0,28.0,-100.00,NNE,16,3.0,6.0,83,-99.99,,,0.00,0.230000,,2013-02-27 15:02:00,
2013-02-27 07:12:00,32.0,28.0,-100.00,NNE,16,3.0,6.0,83,-99.99,,,0.00,0.230000,,2013-02-27 15:12:00,
2013-02-27 07:42:00,32.0,28.0,-100.00,NE,45,2.0,4.0,83,-99.99,,,0.00,34.400002,,2013-02-27 15:42:00,
2013-02-27 07:52:00,32.0,28.0,-100.00,NE,45,2.0,4.0,83,-99.99,,,0.00,34.400002,,2013-02-27 15:52:00,
2013-02-27 08:01:00,32.0,28.0,-100.00,NE,45,2.0,4.0,83,-99.99,,,0.00,34.400002,,2013-02-27 16:01:00,
2013-02-27 08:11:00,32.0,28.0,-100.00,NE,45,2.0,4.0,83,-99.99,,,0.00,34.400002,,2013-02-27 16:11:00,
2013-02-27 08:42:00,34.0,28.0,-100.00,East,95,1.0,3.0,78,-99.99,,,0.00,151.550003,,2013-02-27 16:42:00,
2013-02-27 08:52:00,34.0,28.0,-100.00,East,95,1.0,3.0,78,-99.99,,,0.00,151.550003,,2013-02-27 16:52:00,
2013-02-27 09:01:00,34.0,28.0,-100.00,East,95,1.0,3.0,78,-99.99,,,0.00,151.550003,,2013-02-27 17:01:00,
2013-02-27 09:11:00,34.0,28.0,-100.00,East,95,1.0,3.0,78,-99.99,,,0.00,151.550003,,2013-02-27 17:11:00,
2013-02-27 09:41:00,36.0,28.0,-100.00,SSE,155,3.0,5.0,72,-99.99,,,0.00,297.519989,,2013-02-27 17:41:00,
2013-02-27 09:52:00,36.0,28.0,-100.00,SSE,155,3.0,5.0,72,-99.99,,,0.00,297.519989,,2013-02-27 17:52:00,
2013-02-27 10:01:00,36.0,28.0,-100.00,SSE,155,3.0,5.0,72,-99.99,,,0.00,297.519989,,2013-02-27 18:01:00,
2013-02-27 10:11:00,36.0,28.0,-100.00,SSE,155,3.0,5.0,72,-99.99,,,0.00,297.519989,,2013-02-27 18:11:00,
2013-02-27 10:42:00,38.0,28.0,-100.00,SE,136,3.0,6.0,68,-99.99,,,0.00,383.640015,,2013-02-27 18:42:00,
2013-02-27 10:52:00,38.0,28.0,-100.00,SE,136,3.0,6.0,68,-99.99,,,0.00,383.640015,,2013-02-27 18:52:00,
2013-02-27 11:01:00,38.0,28.0,-100.00,SE,136,3.0,6.0,68,-99.99,,,0.00,383.640015,,2013-02-27 19:01:00,
2013-02-27 11:11:00,38.0,28.0,-100.00,SE,136,3.0,6.0,68,-99.99,,,0.00,383.640015,,2013-02-27 19:11:00,
2013-02-27 11:32:00,40.0,30.0,-100.00,SW,233,4.0,6.0,66,-99.99,,,0.00,507.420013,,2013-02-27 19:32:00,
2013-02-27 11:42:00,40.0,30.0,-100.00,SW,233,4.0,6.0,66,-99.99,,,0.00,507.420013,,2013-02-27 19:42:00,
2013-02-27 11:52:00,40.0,30.0,-100.00,SW,233,4.0,6.0,66,-99.99,,,0.00,507.420013,,2013-02-27 19:52:00,
2013-02-27 12:01:00,40.0,30.0,-100.00,SW,233,4.0,6.0,66,-99.99,,,0.00,507.420013,,2013-02-27 20:01:00,
2013-02-27 12:11:00,40.0,30.0,-100.00,SW,233,4.0,6.0,66,-99.99,,,0.00,507.420013,,2013-02-27 20:11:00,
2013-02-27 12:42:00,44.0,30.0,-100.00,SW,229,3.0,5.0,57,-99.99,,,-99.99,674.770020,,2013-02-27 20:42:00,
2013-02-27 12:52:00,44.0,30.0,-100.00,SW,229,3.0,5.0,57,-99.99,,,-99.99,674.770020,,2013-02-27 20:52:00,
2013-02-27 13:01:00,44.0,30.0,-100.00,SW,229,3.0,5.0,57,-99.99,,,-99.99,674.770020,,2013-02-27 21:01:00,
2013-02-27 13:11:00,44.0,30.0,-100.00,SW,229,3.0,5.0,57,-99.99,,,-99.99,674.770020,,2013-02-27 21:11:00,
2013-02-27 13:42:00,46.0,31.0,-100.00,SSE,148,3.0,6.0,55,-99.99,,,0.00,628.750000,,2013-02-27 21:42:00,
2013-02-27 13:52:00,46.0,31.0,-100.00,SSE,148,3.0,6.0,55,-99.99,,,0.00,628.750000,,2013-02-27 21:52:00,
2013-02-27 14:01:00,46.0,31.0,-100.00,SSE,148,3.0,6.0,55,-99.99,,,0.00,628.750000,,2013-02-27 22:01:00,
2013-02-27 14:11:00,46.0,31.0,-100.00,SSE,148,3.0,6.0,55,-99.99,,,0.00,628.750000,,2013-02-27 22:11:00,
2013-02-27 14:41:00,50.0,26.0,-100.00,SSW,210,3.0,6.0,38,-99.99,,,0.00,381.429993,,2013-02-27 22:41:00,
2013-02-27 14:52:00,50.0,26.0,-100.00,SSW,210,3.0,6.0,38,-99.99,,,0.00,381.429993,,2013-02-27 22:52:00,
2013-02-27 15:01:00,50.0,26.0,-100.00,SSW,210,3.0,6.0,38,-99.99,,,0.00,381.429993,,2013-02-27 23:01:00,
2013-02-27 15:11:00,50.0,26.0,-100.00,SSW,210,3.0,6.0,38,-99.99,,,0.00,381.429993,,2013-02-27 23:11:00,
2013-02-27 15:32:00,47.0,30.0,-100.00,ESE,117,6.0,10.0,51,-99.99,,,0.00,161.199997,,2013-02-27 23:32:00,
2013-02-27 15:42:00,47.0,30.0,-100.00,ESE,117,6.0,10.0,51,-99.99,,,0.00,161.199997,,2013-02-27 23:42:00,
2013-02-27 15:53:00,47.0,30.0,-100.00,ESE,117,6.0,10.0,51,-99.99,,,0.00,161.199997,,2013-02-27 23:53:00,
2013-02-27 16:01:00,47.0,30.0,-100.00,ESE,117,6.0,10.0,51,-99.99,,,0.00,161.199997,,2013-02-28 00:01:00,
2013-02-27 16:11:00,47.0,30.0,-100.00,ESE,117,6.0,10.0,51,-99.99,,,0.00,161.199997,,2013-02-28 00:11:00,
2013-02-27 16:32:00,46.0,31.0,-100.00,ESE,117,7.0,11.0,56,-99.99,,,0.00,76.470001,,2013-02-28 00:32:00,
2013-02-27 16:42:00,46.0,31.0,-100.00,ESE,117,7.0,11.0,56,-99.99,,,0.00,76.470001,,2013-02-28 00:42:00,
2013-02-27 16:52:00,46.0,31.0,-100.00,ESE,117,7.0,11.0,56,-99.99,,,0.00,76.470001,,2013-02-28 00:52:00,
2013-02-27 17:01:00,46.0,31.0,-100.00,ESE,117,7.0,11.0,56,-99.99,,,0.00,76.470001,,2013-02-28 01:01:00,
2013-02-27 17:11:00,46.0,31.0,-100.00,ESE,117,7.0,11.0,56,-99.99,,,0.00,76.470001,,2013-02-28 01:11:00,
2013-02-27 17:41:00,44.0,30.0,-100.00,ESE,116,5.0,10.0,57,-99.99,,,0.00,28.590000,,2013-02-28 01:41:00,
2013-02-27 17:52:00,44.0,30.0,-100.00,ESE,116,5.0,10.0,57,-99.99,,,0.00,28.590000,,2013-02-28 01:52:00,
2013-02-27 18:01:00,44.0,30.0,-100.00,ESE,116,5.0,10.0,57,-99.99,,,0.00,28.590000,,2013-02-28 02:01:00,
2013-02-27 18:11:00,44.0,30.0,-100.00,ESE,116,5.0,10.0,57,-99.99,,,0.00,28.590000,,2013-02-28 02:11:00,
2013-02-27 19:01:00,40.0,30.0,-100.00,ENE,60,4.0,9.0,69,-99.99,,,0.00,0.120000,,2013-02-28 03:01:00,
2013-02-27 19:11:00,40.0,30.0,-100.00,ENE,60,4.0,9.0,69,-99.99,,,0.00,0.120000,,2013-02-28 03:11:00,
2013-02-27 19:31:00,36.0,30.0,-100.00,NNE,29,3.0,5.0,77,-99.99,,,0.00,0.120000,,2013-02-28 03:31:00,
2013-02-27 19:41:00,36.0,30.0,-100.00,NNE,29,3.0,5.0,77,-99.99,,,0.00,0.120000,,2013-02-28 03:41:00,
2013-02-27 19:52:00,36.0,30.0,-100.00,NNE,29,3.0,5.0,77,-99.99,,,0.00,0.120000,,2013-02-28 03:52:00,
2013-02-27 20:01:00,36.0,30.0,-100.00,NNE,29,3.0,5.0,77,-99.99,,,0.00,0.120000,,2013-02-28 04:01:00,
2013-02-27 20:11:00,36.0,30.0,-100.00,NNE,29,3.0,5.0,77,-99.99,,,0.00,0.120000,,2013-02-28 04:11:00,
2013-02-27 20:42:00,35.0,30.0,-100.00,NE,36,3.0,7.0,80,-99.99,,,0.00,0.120000,,2013-02-28 04:42:00,
2013-02-27 20:52:00,35.0,30.0,-100.00,NE,36,3.0,7.0,80,-99.99,,,0.00,0.120000,,2013-02-28 04:52:00,
2013-02-27 21:01:00,35.0,30.0,-100.00,NE,36,3.0,7.0,80,-99.99,,,0.00,0.120000,,2013-02-28 05:01:00,
2013-02-27 21:11:00,35.0,30.0,-100.00,NE,36,3.0,7.0,80,-99.99,,,0.00,0.120000,,2013-02-28 05:11:00,
2013-02-27 21:42:00,36.0,31.0,-100.00,NNE,31,2.0,4.0,80,-99.99,,,0.00,0.120000,,2013-02-28 05:42:00,
2013-02-27 21:52:00,36.0,31.0,-100.00,NNE,31,2.0,4.0,80,-99.99,,,0.00,0.120000,,2013-02-28 05:52:00,
2013-02-27 22:01:00,36.0,31.0,-100.00,NNE,31,2.0,4.0,80,-99.99,,,0.00,0.120000,,2013-02-28 06:01:00,
2013-02-27 22:11:00,36.0,31.0,-100.00,NNE,31,2.0,4.0,80,-99.99,,,0.00,0.120000,,2013-02-28 06:11:00,
2013-02-27 22:42:00,36.0,31.0,-100.00,NNE,24,3.0,4.0,82,-99.99,,,0.00,0.120000,,2013-02-28 06:42:00,
2013-02-27 22:52:00,36.0,31.0,-100.00,NNE,24,3.0,4.0,82,-99.99,,,0.00,0.120000,,2013-02-28 06:52:00,
2013-02-27 23:01:00,36.0,31.0,-100.00,NNE,24,3.0,4.0,82,-99.99,,,0.00,0.120000,,2013-02-28 07:01:00,
2013-02-27 23:11:00,36.0,31.0,-100.00,NNE,24,3.0,4.0,82,-99.99,,,0.00,0.120000,,2013-02-28 07:11:00,
2013-02-27 23:41:00,36.0,32.0,-100.00,NE,44,2.0,4.0,83,-99.99,,,0.00,0.120000,,2013-02-28 07:41:00,
2013-02-27 23:52:00,36.0,32.0,-100.00,NE,44,2.0,4.0,83,-99.99,,,0.00,0.120000,,2013-02-28 07:52:00,